Location: Northcutt
(34.7304°N, 84.4305°W)
Time: 11:29:31
(UTC+00:00)

A-11 Canister half - All Passes

Search period start: 05 October 2022 00:00
Search period end: 15 October 2022 00:00
Orbit: 1515 x 1684 km, 47.2° (Epoch: 04 October)

Date Brightness Start Highest point End Pass type
(mag) Time Alt. Az. Time Alt. Az. Time Alt. Az.
05 Oct - 00:42:41 10° SW 00:52:33 73° SE 01:02:03 10° ENE visible
05 Oct - 02:48:36 10° W 02:57:58 50° NNW 03:07:04 10° NE visible
05 Oct - 04:56:02 10° WNW 05:04:47 39° N 05:13:19 10° ENE visible
05 Oct - 07:01:51 10° NW 07:11:10 65° NNE 07:20:19 10° ESE visible
05 Oct - 09:07:10 10° WNW 09:15:47 45° SW 09:24:24 10° SSE visible
05 Oct - 22:19:53 10° SSE 22:25:48 18° SE 22:31:36 10° E daylight
06 Oct - 00:19:47 10° SW 00:29:37 69° SE 00:39:06 10° ENE visible
06 Oct - 02:25:31 10° W 02:34:58 51° NNW 02:44:07 10° NE visible
06 Oct - 04:32:59 10° WNW 04:41:45 38° N 04:50:17 10° ENE visible
06 Oct - 06:38:53 10° NW 06:48:12 62° NNE 06:57:20 10° ESE visible
06 Oct - 08:44:10 10° WNW 08:52:55 48° SW 09:01:39 10° SSE visible
06 Oct - 21:57:35 10° SSE 22:02:56 16° ESE 22:08:12 10° E daylight
06 Oct - 23:56:53 10° SW 00:06:42 65° SE 00:16:10 10° ENE visible
07 Oct - 02:02:25 10° W 02:11:57 53° NNW 02:21:12 10° NE visible
07 Oct - 04:09:54 10° WNW 04:18:42 38° N 04:27:15 10° ENE visible
07 Oct - 06:15:57 10° NW 06:25:14 59° NNE 06:34:20 10° ESE night (unlit)
07 Oct - 08:21:11 10° WNW 08:30:04 52° SW 08:38:53 10° SSE visible
07 Oct - 21:35:25 10° SSE 21:40:05 14° ESE 21:44:42 10° E daylight
07 Oct - 23:34:01 10° SSW 23:43:47 61° SE 23:53:13 10° ENE visible
08 Oct - 01:39:20 10° WSW 01:48:57 55° NNW 01:58:16 10° NE visible
08 Oct - 03:46:51 10° WNW 03:55:39 38° N 04:04:13 10° ENE visible
08 Oct - 05:52:59 10° NW 06:02:15 57° NNE 06:11:19 10° ESE night (unlit)
08 Oct - 07:58:11 10° WNW 08:07:11 56° SW 08:16:06 10° SSE visible
08 Oct - 10:08:24 10° WSW 10:10:34 11° WSW 10:12:45 10° SW visible
08 Oct - 21:13:25 10° SE 21:17:14 13° ESE 21:21:00 10° E daylight
08 Oct - 23:11:10 10° SSW 23:20:52 57° SE 23:30:15 10° ENE daylight
09 Oct - 01:16:16 10° WSW 01:25:57 58° NNW 01:35:20 10° NE visible
09 Oct - 03:23:45 10° WNW 03:32:36 38° N 03:41:12 10° ENE visible
09 Oct - 05:30:01 10° NW 05:39:17 55° NNE 05:48:19 10° E visible
09 Oct - 07:35:13 10° WNW 07:44:19 59° SW 07:53:18 10° SSE visible
09 Oct - 09:44:19 10° W 09:47:45 12° WSW 09:51:12 10° SW visible
09 Oct - 20:51:46 10° SE 20:54:23 11° ESE 20:56:58 10° ESE daylight
09 Oct - 22:48:20 10° SSW 22:57:57 54° SE 23:07:17 10° ENE daylight
10 Oct - 00:53:11 10° WSW 01:02:58 60° NNW 01:12:24 10° NE visible
10 Oct - 03:00:40 10° WNW 03:09:33 39° N 03:18:11 10° ENE visible
10 Oct - 05:07:02 10° NW 05:16:18 53° NNE 05:25:18 10° E visible
10 Oct - 07:12:14 10° WNW 07:21:26 63° SW 07:30:29 10° SE night (unlit)
10 Oct - 09:20:38 10° W 09:24:56 14° WSW 09:29:14 10° SSW visible
10 Oct - 22:25:30 10° SSW 22:35:03 51° SE 22:44:18 10° ENE daylight
11 Oct - 00:30:08 10° WSW 00:39:58 63° NNW 00:49:29 10° NE visible
11 Oct - 02:37:34 10° WNW 02:46:30 39° N 02:55:10 10° ENE visible
11 Oct - 04:44:04 10° NW 04:53:18 51° NNE 05:02:16 10° E visible
11 Oct - 06:49:16 10° WNW 06:58:33 67° SW 07:07:39 10° SE night (unlit)
11 Oct - 08:57:08 10° W 09:02:06 16° WSW 09:07:05 10° SSW visible
11 Oct - 22:02:41 10° SSW 22:12:08 47° SE 22:21:19 10° ENE daylight
12 Oct - 00:07:04 10° WSW 00:16:58 66° NNW 00:26:33 10° NE visible
12 Oct - 02:14:28 10° WNW 02:23:27 39° N 02:32:10 10° ENE visible
12 Oct - 04:21:05 10° NW 04:30:18 49° NNE 04:39:14 10° E visible
12 Oct - 06:26:18 10° WNW 06:35:39 72° SW 06:44:49 10° SE night (unlit)
12 Oct - 08:33:45 10° W 08:39:18 18° SW 08:44:49 10° SSW night (unlit)
12 Oct - 21:39:55 10° SSW 21:49:14 44° SE 21:58:18 10° ENE daylight
12 Oct - 23:44:01 10° WSW 23:53:59 68° NNW 00:03:38 10° NE visible
13 Oct - 01:51:21 10° WNW 02:00:24 40° N 02:09:10 10° ENE visible
13 Oct - 03:58:05 10° NW 04:07:17 48° NNE 04:16:13 10° E visible
13 Oct - 06:03:20 10° WNW 06:12:46 76° SW 06:21:57 10° SE night (unlit)
13 Oct - 08:10:26 10° W 08:16:27 19° SW 08:22:29 10° SSW night (unlit)
13 Oct - 21:17:09 10° SSW 21:26:20 41° SE 21:35:18 10° ENE daylight
13 Oct - 23:20:59 10° WSW 23:31:00 72° NNW 23:40:42 10° NE visible
14 Oct - 01:28:14 10° WNW 01:37:21 40° N 01:46:10 10° ENE visible
14 Oct - 03:35:05 10° NW 03:44:16 47° NNE 03:53:11 10° E visible
14 Oct - 05:40:22 10° NW 05:49:51 80° SW 05:59:05 10° SE visible
14 Oct - 07:47:10 10° W 07:53:38 21° SW 08:00:04 10° S night (unlit)
14 Oct - 20:54:24 10° SSW 21:03:26 39° SE 21:12:16 10° ENE daylight
14 Oct - 22:57:57 10° WSW 23:08:01 75° NNW 23:17:46 10° NE daylight
